Istrana, Italy

12:52 AM CEST on August 30, 2016 (GMT +0200)
Istrana Mil

Weather History for LIPS - April, 2014

Change the Weather History Date:

Friday, April 18, 2014

  Actual Average Record
Temperature  
Mean Temperature 52 °F -  
Max Temperature 65 °F 68 °F 79 °F (2013)
Min Temperature 40 °F 49 °F 33 °F (1997)
Degree Days  
Heating Degree Days 12    
Growing Degree Days 2 (Base 50)    
Moisture  
Dew Point 34 °F    
Average Humidity 46    
Maximum Humidity 87    
Minimum Humidity 14    
Precipitation  
Precipitation 0.00 in 0.12 in - ()
Sea Level Pressure  
Sea Level Pressure 29.82 in    
Wind  
Wind Speed 2 mph ()    
Max Wind Speed 6 mph    
Max Gust Speed -    
Visibility 8.1 miles    
Events      
Averages and records for this station are not official NWS values.
T = Trace of Precipitation, MM = Missing Value Source: Averaged Metar Reports

Daily Weather History Graph

Daily Weather History Graph

Search for Another Location

Airport or City:

Trip Planner

Search our weather history database for the weather conditions in past years. The results will help you decide how hot, cold, wet, or windy it might be!

Date:

Astronomy

Apr. 18, 2014 Rise Set
Actual Time 6:21 AM CEST 8:01 PM CEST
Civil Twilight 5:49 AM CEST 8:33 PM CEST
Nautical Twilight 5:11 AM CEST 9:11 PM CEST
Astronomical Twilight 4:30 AM CEST 9:52 PM CEST
Moon 11:37 PM CEST (4/18) 8:21 AM CEST (4/18)
Length of Visible Light 14h 43m
Length of Day
13h 40m
Waning Gibbous, 89% of the Moon is Illuminated
Apr 18
Waning Gibbous
Apr 22
Last Quarter
Apr 29
New
May 7
First Quarter
May 14
Full

Hourly Weather History & Observations

Time (CEST) Temp. Windchill Dew Point Humidity Pressure Visibility Wind Dir Wind Speed Gust Speed Precip Events Conditions
12:00 AM 47 °F - 39 °F 66% 30.00 in 12 mi NNE 4.6 mph - -  
12:55 AM 46.4 °F 43.5 °F 39.2 °F 76% 29.98 in - West 5.8 mph - N/A   Clear
1:00 AM 46 °F - 39 °F 68% 30.00 in 12 mi West 5.8 mph - -  
2:00 AM 44 °F - 39 °F 76% 29.97 in 9 mi Calm Calm - -  
2:55 AM 42.8 °F - 39.2 °F 87% 29.92 in - Calm Calm - N/A   Clear
3:00 AM 43 °F - 39 °F 79% 29.95 in 9 mi Calm Calm - -  
3:55 AM 42.8 °F - 39.2 °F 87% 29.92 in - Calm Calm - N/A   Clear
4:00 AM 42 °F - 38 °F 83% 29.95 in 9 mi Calm Calm - -  
4:55 AM 42.8 °F - 37.4 °F 81% 29.92 in - Calm Calm - N/A   Clear
5:00 AM 43 °F - 37 °F 72% 29.93 in 9 mi Calm Calm - -  
5:55 AM 42.8 °F - 35.6 °F 76% 29.89 in - Calm Calm - N/A   Clear
6:00 AM 43 °F - 36 °F 70% 29.92 in 9 mi Calm Calm - -   Clear
6:55 AM 44.6 °F 43.1 °F 35.6 °F 71% 29.89 in - NNW 3.5 mph - N/A   Clear
7:00 AM 45 °F - 36 °F 62% 29.90 in 12 mi NNW 3.5 mph - -   Clear
7:55 AM 46.4 °F - 37.4 °F 71% 29.86 in - Calm Calm - N/A   Clear
8:00 AM 46 °F - 38 °F 65% 29.88 in 12 mi Calm Calm - -   Clear
8:55 AM 51.8 °F - 41.0 °F 67% 29.86 in 6.2 mi ESE 3.5 mph - N/A   Scattered Clouds
9:00 AM 53 °F - 41 °F 52% 29.87 in 16 mi ESE 3.5 mph - -   Partly Cloudy
9:55 AM 57.2 °F - 33.8 °F 41% 29.83 in 6.2 mi East 4.6 mph - N/A   Partly Cloudy
10:00 AM 57 °F - 34 °F 30% 29.86 in 12 mi East 4.6 mph - -   Scattered Clouds
10:55 AM 60.8 °F - 32.0 °F 34% 29.83 in - WSW 4.6 mph - N/A   Clear
11:00 AM 61 °F - 31 °F 21% 29.84 in 9 mi WSW 4.6 mph - -   Clear
11:55 AM 62.6 °F - 28.4 °F 27% 29.83 in - WSW 2.3 mph - N/A   Clear
12:00 PM 63 °F - 28 °F 15% 29.83 in 9 mi WSW 2.3 mph - -   Clear
12:55 PM 64.4 °F - 28.4 °F 26% 29.80 in 6.2 mi WSW 4.6 mph - N/A   Scattered Clouds
1:00 PM 64 °F - 29 °F 16% 29.81 in 9 mi WSW 4.6 mph - -   Partly Cloudy
1:55 PM 62.6 °F - 28.4 °F 27% 29.80 in 6.2 mi SW 3.5 mph - N/A   Scattered Clouds
2:00 PM 63 °F - 29 °F 16% 29.82 in 9 mi SW 3.5 mph - -   Partly Cloudy
2:55 PM 64.4 °F - 26.6 °F 24% 29.77 in - SW 4.6 mph - N/A   Clear
3:00 PM 64 °F - 27 °F 14% 29.78 in 9 mi SW 4.6 mph - -   Clear
3:55 PM 64.4 °F - 26.6 °F 24% 29.74 in - SSW 3.5 mph - N/A   Clear
4:00 PM 65 °F - 28 °F 14% 29.75 in 7 mi SSW 3.5 mph - -   Clear
4:55 PM 64.4 °F - 26.6 °F 24% 29.71 in 6.2 mi SE 2.3 mph - N/A   Mostly Cloudy
5:00 PM 64 °F - 27 °F 14% 29.72 in 6 mi SE 2.3 mph - -   Mostly Cloudy
5:55 PM 64.4 °F - 30.2 °F 28% 29.71 in 6.2 mi Calm Calm - N/A   Mostly Cloudy
6:00 PM 64 °F - 30 °F 17% 29.72 in 6 mi Calm Calm - -   Mostly Cloudy
6:55 PM 62.6 °F - 32.0 °F 32% 29.71 in 6.2 mi Calm Calm - N/A   Mostly Cloudy
7:00 PM 63 °F - 31 °F 19% 29.71 in 6 mi Calm Calm - -   Mostly Cloudy
7:55 PM 60.8 °F - 33.8 °F 36% 29.68 in 6.2 mi WNW 2.3 mph - N/A   Mostly Cloudy
8:00 PM 61 °F - 34 °F 24% 29.69 in 6 mi WNW 2.3 mph - -   Mostly Cloudy
8:55 PM 59.0 °F - 32.0 °F 36% 29.68 in 6.2 mi South 2.3 mph - N/A   Mostly Cloudy
9:00 PM 59 °F - 31 °F 23% 29.69 in 6 mi South 2.3 mph - -   Mostly Cloudy
9:55 PM 57.2 °F - 37.4 °F 48% 29.68 in 6.2 mi South 2.3 mph - N/A   Mostly Cloudy
10:00 PM 58 °F - 37 °F 33% 29.69 in 6 mi South 2.3 mph - -   Mostly Cloudy
11:00 PM 55 °F - 46 °F 64% 29.70 in 6 mi Calm Calm - -   Mostly Cloudy
11:55 PM 53.6 °F - 46.4 °F 77% 29.68 in 6.2 mi Calm Calm - N/A   Mostly Cloudy